{"data":{"norad_id":67670,"intl_designator":"2026-022Y","name":"STARLINK-36596","alt_names":[],"object_type":"PAYLOAD","status":"ACTIVE","operator":null,"country":"US","launch_date":"2026-02-02","launch_site_code":"AFWTR","launch_vehicle":null,"mission":null,"orbit_class":"UNKNOWN","rcs_meters":null,"size_class":null,"mass_kg":null,"dimensions":null,"purposes":["comms"],"wikipedia_slug":null,"has_3d_model":false,"image_url":null,"decayed_at":null,"tle_current":{"epoch":"2026-09-19T19:31:14.406816Z","epoch_age_seconds":129044,"freshness":"FRESH","line1":"1 67670U 26022Y   26262.81336119  .00017007  00000+0  52756-3 0  9990","line2":"2 67670  97.2848 294.4124 0001196 256.6566 103.4544 15.33467574 35324","mean_motion":15.33467574,"eccentricity":0.0001196,"inclination_deg":97.2848,"raan_deg":294.4124,"arg_perigee_deg":256.6566,"mean_anomaly_deg":103.4544,"bstar":0.00052756,"rev_number":3532,"period_min":93.904822274383,"perigee_km":464.65751484411,"apogee_km":466.29450707634,"semimajor_km":6843.6130109602,"source":"CELESTRAK","updated_at":"2026-09-20T09:00:43.624648Z"}}}